This demonstration page uses our WeatherBlox Daily Observations layout. Learn more.

Left ArrowRight Arrow

39.29038, -76.61219

Hourly Observations for February 18, 2021

Temp ( °F °C ) Dew Point ( °F °C ) Humidity (%) Winds ( mph kmh ) Pressure ( in mb ) Visibility ( mi km ) Precip ( " mm )
12:54 am 00:54 Cloudy 29 -1.7 10 -12.2 45 45 N N/A 30.45 1031 10 16 N/A
1:54 am 01:54 Cloudy 29 -1.7 9 -12.8 43 43 NNE 5 7 30.43 1031 10 16 N/A
2:54 am 02:54 Cloudy 30 -1.1 11 -11.7 45 45 ENE 7 11 30.42 1030 10 16 N/A
3:54 am 03:54 Cloudy 30 -1.1 13 -10.6 49 49 E 7 11 30.38 1029 10 16 N/A
4:54 am 04:54 Cloudy 30 -1.1 15 -9.4 54 54 N 3 6 30.39 1029 10 16 N/A
5:10 am 05:10 Cloudy with Light Snow 30 -1.1 14 -10 51 51 N 6 9 30.40 1030 10 16 0.00 0.00
5:24 am 05:24 Cloudy 30 -1.1 15 -9.4 54 54 N 8 13 30.40 1030 3 5 0.00 0.00
5:28 am 05:28 Cloudy 29 -1.7 16 -8.9 58 58 NNE 9 15 30.40 1030 2 3 0.00 0.00
5:33 am 05:33 Cloudy 28 -2.2 18 -7.8 66 66 NNE 9 15 30.39 1029 4 6 0.00 0.00
5:46 am 05:46 Cloudy 28 -2.2 19 -7.2 69 69 NNE 8 13 30.39 1029 7 11 0.01 0.25
5:54 am 05:54 Cloudy 28 -2.2 20 -6.7 72 72 NE 10 17 30.37 1028 8 13 0.01 0.25
6:30 am 06:30 Cloudy 28 -2.2 21 -6.1 75 75 NE 9 15 30.39 1029 4 6 0.03 0.76
6:47 am 06:47 Cloudy 27 -2.8 22 -5.6 81 81 ENE 10 17 30.38 1029 3 5 0.06 1.52
6:54 am 06:54 Cloudy 27 -2.8 22 -5.6 81 81 ENE 9 15 30.38 1029 4 6 0.07 1.78
7:19 am 07:19 Cloudy 27 -2.8 22 -5.6 81 81 ENE 10 17 30.37 1029 3 4 0.02 0.51
7:26 am 07:26 Cloudy with Mist and Fog 27 -2.8 23 -5 85 85 ENE 10 17 30.36 1028 3 4 0.03 0.76
7:29 am 07:29 Cloudy with Mist and Fog 27 -2.8 23 -5 85 85 ENE 10 17 30.36 1028 3 4 0.03 0.76
7:41 am 07:41 Cloudy with Mist and Fog 27 -2.8 23 -5 85 85 NE 9 15 30.38 1029 3 4 0.03 0.76
7:54 am 07:54 Cloudy with Mist and Fog 27 -2.8 23 -5 85 85 NE 10 17 30.36 1028 2 3 0.05 1.27
8:07 am 08:07 Cloudy with Mist and Fog 27 -2.8 24 -4.4 89 89 ENE 9 15 30.38 1029 1 1 0.01 0.25
8:12 am 08:12 Cloudy with Mist and Fog 27 -2.8 23 -5 85 85 ENE 10 17 30.37 1029 1 1 0.01 0.25
8:31 am 08:31 Cloudy with Mist and Fog 27 -2.8 24 -4.4 89 89 NNE 9 15 30.38 1029 1 2 0.02 0.51
8:42 am 08:42 Cloudy with Mist and Fog 28 -2.2 24 -4.4 85 85 NE 7 11 30.38 1029 2 3 0.02 0.51
8:54 am 08:54 Cloudy with Mist and Fog 28 -2.2 24 -4.4 85 85 NNE 8 13 30.36 1028 2 2 0.04 1.02
9:03 am 09:03 Cloudy with Mist and Fog 28 -2.2 24 -4.4 85 85 N 3 6 30.39 1029 2 3 0.00 0.00
9:14 am 09:14 Cloudy with Mist and Fog 27 -2.8 24 -4.4 89 89 NNE 7 11 30.40 1030 1 2 0.00 0.00
9:20 am 09:20 Cloudy with Mist and Fog 28 -2.2 24 -4.4 85 85 NNE 8 13 30.38 1029 1 2 0.03 0.76
9:29 am 09:29 Cloudy with Mist and Fog 27 -2.8 24 -4.4 89 89 NE 9 15 30.36 1028 1 1 0.06 1.52
9:41 am 09:41 Cloudy with Mist and Fog 27 -2.8 24 -4.4 89 89 NNE 10 17 30.37 1029 2 2 0.08 2.03
9:54 am 09:54 Cloudy with Mist and Fog 27 -2.8 23 -5 85 85 NNE 10 17 30.35 1028 2 3 0.09 2.29
10:08 am 10:08 Cloudy with Mist and Fog 27 -2.8 23 -5 85 85 N 9 15 30.36 1028 1 1 0.03 0.76
10:16 am 10:16 Cloudy with Mist and Fog 27 -2.8 23 -5 85 85 NNE 5 7 30.37 1029 1 2 0.06 1.52
10:48 am 10:48 Cloudy with Mist and Fog 27 -3 23 -5 86 86 NE 9 15 30.36 1028 2 3 0.18 4.57
10:54 am 10:54 Cloudy with Mist and Fog 27 -2.8 23 -5 85 85 NE 8 13 30.35 1028 2 2 0.20 5.08
11:18 am 11:18 Cloudy with Mist and Fog 28 -2.2 24 -4.4 85 85 NE 10 17 30.32 1027 3 5 0.03 0.76
11:40 am 11:40 Cloudy with Light Freezing Drizzle 28 -2.2 24 -4.4 85 85 ENE 12 19 30.29 1026 4 6 0.04 1.02
11:54 am 11:54 Cloudy with Light Freezing Drizzle 28 -2.2 24 -4.4 85 85 ENE 14 22 30.25 1024 5 8 0.04 1.02
12:09 pm 12:09 Cloudy with Light Snow 28 -2.2 24 -4.4 85 85 E 13 20 30.23 1024 7 11 0.00 0.00
12:29 pm 12:29 Cloudy with Light Snow 29 -1.7 25 -3.9 85 85 E 16 26 30.22 1023 9 14 0.00 0.00
12:54 pm 12:54 Cloudy 30 -1.1 25 -3.9 82 82 NNE 9 15 30.27 1025 10 16 0.00 0.00
1:26 pm 13:26 Cloudy with Light Snow 30 -1.1 25 -3.9 82 82 NNW 7 11 30.27 1025 9 14 0.00 0.00
1:54 pm 13:54 Cloudy with Light Snow 30 -1.1 25 -3.9 82 82 NNE 9 15 30.24 1024 9 14 0.00 0.00
2:08 pm 14:08 Cloudy 30 -1.1 25 -3.9 82 82 NNE 8 13 30.26 1025 9 14 0.00 0.00
2:54 pm 14:54 Cloudy 31 -0.6 25 -3.9 79 79 N 10 17 30.25 1024 10 16 0.00 0.00
3:54 pm 15:54 Cloudy 31 -0.6 24 -4.4 76 76 N 7 11 30.25 1024 10 16 N/A
4:54 pm 16:54 Cloudy 30 -1.1 24 -4.4 79 79 N 6 9 30.22 1024 9 14 N/A
5:54 pm 17:54 Cloudy with Haze 29 -1.7 24 -4.4 82 82 N 5 7 30.23 1024 6 10 N/A
6:40 pm 18:40 Cloudy with Light Freezing Drizzle 29 -1.7 25 -3.9 85 85 N 7 11 30.23 1024 3 5 0.00 0.00
6:48 pm 18:48 Cloudy with Light Freezing Drizzle 28 -2 25 -4 86 86 N 7 11 30.22 1023 3 4 0.00 0.00
6:49 pm 18:49 Cloudy with Light Freezing Drizzle 28 -2 25 -4 86 86 N 6 9 30.23 1024 3 4 0.00 0.00
6:54 pm 18:54 Cloudy with Light Freezing Drizzle 29 -1.7 25 -3.9 85 85 N 7 11 30.22 1023 3 4 0.00 0.00
7:15 pm 19:15 Cloudy with Light Freezing Drizzle 29 -1.7 26 -3.3 89 89 N 6 9 30.24 1024 3 5 0.00 0.00
7:54 pm 19:54 Cloudy with Light Freezing Drizzle 29 -1.7 26 -3.3 89 89 NW 6 9 30.25 1024 2 2 0.01 0.25
8:05 pm 20:05 Cloudy with Light Freezing Drizzle 29 -1.7 27 -2.8 92 92 VRB 5 7 30.26 1025 2 2 0.00 0.00
8:54 pm 20:54 Cloudy with Light Freezing Drizzle 29 -1.7 26 -3.3 89 89 NNE 7 11 30.23 1024 3 5 0.01 0.25
9:37 pm 21:37 Cloudy with Mist and Fog 29 -1.7 26 -3.3 89 89 NNE 6 9 30.24 1024 4 6 0.00 0.00
9:54 pm 21:54 Cloudy with Mist and Fog 29 -1.7 26 -3.3 89 89 NNE 6 9 30.22 1024 5 8 0.00 0.00
10:54 pm 22:54 Cloudy 29 -1.7 26 -3.3 89 89 NNE 5 7 30.21 1023 7 11 N/A
11:54 pm 23:54 Cloudy with Light Freezing Drizzle 30 -1.1 27 -2.8 88 88 N 7 11 30.20 1023 3 4 0.00 0.00

Powered by AerisWeather